Notices

What's New in latest Release from April 7th, 2021:

- Updated Glossary, including Speed of Maximum Gust, and Total Hourly Precipitation

- Updated national and regional climate services offices contacts and prices information

- Addition of station inventory lists for 1981-2010, 1971-2000, and 1961-1990 Normals.

If you haven't already, please take our survey and provide feedback about our website: https://eccc.sondage-survey.ca/f/LanguageSelection.aspx?s=442ca660-fcf1-47c0-95a9-59707d6fd709

Hourly Data Report for January 04, 2005

SHERBROOKE A
QUEBEC

45°26'00.000" N
71°41'00.000" W
241.40 m
7028124
71610
YSC

Download Data

Hourly Data (January 2005)
Hourly Data Report for January 4, 2005
TIME
LST
Temp Definition
°C
Dew Point Definition
°C
Rel Hum Definition
%
Precip. Amount Definition
mm

Wind Dir Definition
10's deg

Wind Spd Definition
km/h
Visibility Definition
km
Stn Press Definition
kPa
Hmdx Definition


Wind Chill Definition


Weather Definition


00:00 -1.7 -4.1 84     0 15.0 99.34      
01:00 -2.1 -5.4 78   35 6 15.0 99.30   -4  
02:00 -2.5 -6.0 77   32 4 15.0 99.31   -4  
03:00 -2.6 -5.9 78   9 4 15.0 99.28   -4  
04:00 -2.9 -6.7 75   2 6 15.0 99.30   -5  
05:00 -3.0 -6.7 76     0 15.0 99.32      
06:00 -3.2 -7.2 74     0 15.0 99.34      
07:00 -3.3 -7.6 72     0 15.0 99.34      
08:00 -3.3 -7.1 75   31 4 19.3 99.38   -5 Cloudy
09:00 -3.4 -7.8 72   30 6 19.3 99.43   -6 Cloudy
10:00 -3.5 -7.6 73   26 6 19.3 99.42   -6 Cloudy
11:00 -3.4 -7.9 71   32 6 19.3 99.38   -6 Cloudy
12:00 -3.6 -7.6 74   29 9 19.3 99.34   -7 Cloudy
13:00 -3.9 -8.2 72   31 9 19.3 99.27   -8 Cloudy
14:00 -4.2 -7.6 77   30 6 19.3 99.25   -7 Cloudy
15:00 -4.3 -7.4 79   28 7 19.3 99.26   -7 Cloudy
16:00 -4.3 -7.4 79   28 11 16.1 99.31   -9 Snow
17:00 -4.4 -7.1 81   24 11 16.1 99.34   -9 Snow
18:00 -4.3 -7.6 78   24 13 15.0 99.33   -9  
19:00 -4.5 -7.8 78   23 11 15.0 99.34   -9  
20:00 -4.9 -8.2 78   26 11 15.0 99.29   -9  
21:00 -5.0 -9.0 73   26 15 15.0 99.25   -11  
22:00 -5.1 -8.5 77   27 19 9.7 99.28   -12 Snow
23:00 -5.7 -8.9 78   28 20 4.8 99.30   -12 Snow

Notes on Data Quality.

Legend

  • E = Estimated
  • M = Missing
  • NA = Not Available*
  • [empty] = Indicates an unobserved value
Date modified: